Tracking 19795 objects as of 20-Jul-2019
HD Live streaming from Space Station
objects crossing your sky now

MOS 1B (MOMO 1B)

Track MOS 1B (MOMO 1B) now!
10-day predictions
MOS 1B (MOMO 1B) is classified as:


NORAD ID: 20478
Int'l Code: 1990-013A
Perigee: 912.8 km
Apogee: 920.5 km
Inclination: 99.4 °
Period: 103.2 minutes
Semi major axis: 7287 km
RCS: 3.7354 m2 (large)
Launch date: February 7, 1990
Source: Japan (JPN)
Launch site: TANEGASHIMA SPACE CENTER (TNSTA)
aabbcc
Your satellite tracking list
Your tracking list is empty




NASA's NSSDC Master Catalog

Two Line Element Set (TLE):
1 20478U 90013A   19201.07502709 -.00000155  00000-0 -80105-4 0  9998
2 20478  99.3917 185.2177 0005296 181.9454 178.1687 13.95480561420147
Source of the keplerian elements: AFSPC